Wendover, UT

5:46 PM MST on February 23, 2017 (GMT -0700)
Wendover

Weather History for KENV - January, 2013

Change the Weather History Date:

Thursday, January 17, 2013

  Actual Average Record
Temperature  
Mean Temperature 6 °F -  
Max Temperature 12 °F 38 °F 59 °F (1950)
Min Temperature 1 °F 21 °F -15 °F (1984)
Degree Days  
Heating Degree Days 58    
Moisture  
Dew Point 4 °F    
Average Humidity 89    
Maximum Humidity 100    
Minimum Humidity 72    
Precipitation  
Precipitation 0.00 in - - ()
Sea Level Pressure  
Sea Level Pressure 30.61 in    
Wind  
Wind Speed 1 mph (South)    
Max Wind Speed 6 mph    
Max Gust Speed -    
Visibility 7 miles    
Events      
Averages and records for this station are not official NWS values.
T = Trace of Precipitation, MM = Missing Value Source: NWS Daily Summary

Daily Weather History Graph

Daily Weather History Graph

Search for Another Location

Airport or City:

Trip Planner

Search our weather history database for the weather conditions in past years. The results will help you decide how hot, cold, wet, or windy it might be!

Date:

Astronomy

Jan. 17, 2013 Rise Set
Actual Time 7:56 AM MST 5:36 PM MST
Civil Twilight 7:27 AM MST 6:06 PM MST
Nautical Twilight 6:53 AM MST 6:39 PM MST
Astronomical Twilight 6:20 AM MST 7:12 PM MST
Moon 11:03 AM MST (1/17) No Moon Set
Length of Visible Light 10h 39m
Length of Day
9h 39m
Waxing Crescent, 38% of the Moon is Illuminated
Jan 17
Waxing Crescent
Jan 18
First Quarter
Jan 26
Full
Feb 3
Last Quarter
Feb 10
New

Hourly Weather History & Observations

Time (MST) Temp. Windchill Dew Point Humidity Pressure Visibility Wind Dir Wind Speed Gust Speed Precip Events Conditions
12:15 AM 5.0 °F - 1.4 °F 85% 30.62 in 10.0 mi Calm Calm - N/A   Clear
12:35 AM 5.0 °F - -0.4 °F 78% 30.63 in 10.0 mi Calm Calm - N/A   Clear
1:35 AM 3.2 °F - -0.4 °F 85% 30.62 in 10.0 mi Calm Calm - N/A   Clear
1:55 AM 1.4 °F -9.9 °F -0.4 °F 92% 30.62 in 10.0 mi ENE 5.8 mph - N/A   Clear
2:35 AM 3.2 °F -7.8 °F 1.4 °F 92% 30.62 in 10.0 mi ENE 5.8 mph - N/A   Clear
2:55 AM 1.4 °F - -0.4 °F 92% 30.63 in 10.0 mi Calm Calm - N/A   Clear
3:15 AM 1.4 °F - -0.4 °F 92% 30.63 in 10.0 mi Calm Calm - N/A   Clear
3:35 AM 1.4 °F -8.3 °F -0.4 °F 92% 30.62 in 10.0 mi West 4.6 mph - N/A   Clear
3:55 AM 3.2 °F -4.2 °F 1.4 °F 92% 30.62 in 10.0 mi West 3.5 mph - N/A   Clear
4:15 AM 3.2 °F - 3.2 °F 100% 30.62 in 10.0 mi Calm Calm - N/A   Partly Cloudy
4:35 AM 3.2 °F -4.2 °F -0.4 °F 85% 30.62 in 10.0 mi NE 3.5 mph - N/A   Mostly Cloudy
4:55 AM 3.2 °F -4.2 °F -0.4 °F 85% 30.62 in 10.0 mi East 3.5 mph - N/A   Scattered Clouds
5:15 AM 1.4 °F -9.9 °F -0.4 °F 92% 30.62 in 10.0 mi South 5.8 mph - N/A   Partly Cloudy
5:35 AM 1.4 °F -8.3 °F -0.4 °F 92% 30.62 in 10.0 mi South 4.6 mph - N/A   Partly Cloudy
5:55 AM 1.4 °F -8.3 °F -5.8 °F 72% 30.62 in 10.0 mi South 4.6 mph - N/A   Scattered Clouds
6:15 AM 1.4 °F - -0.4 °F 92% 30.63 in 10.0 mi Calm Calm - N/A   Mostly Cloudy
6:35 AM 1.4 °F - -0.4 °F 92% 30.62 in 10.0 mi Calm Calm - N/A   Overcast
6:55 AM 1.4 °F - -2.2 °F 85% 30.62 in 10.0 mi Calm Calm - N/A   Overcast
7:15 AM 1.4 °F - -0.4 °F 92% 30.63 in 10.0 mi Calm Calm - N/A   Overcast
7:35 AM 1.4 °F - 1.4 °F 100% 30.63 in 10.0 mi Calm Calm - N/A   Overcast
7:55 AM 3.2 °F - 1.4 °F 92% 30.64 in 9.0 mi Calm Calm - N/A   Overcast
8:15 AM 3.2 °F - 1.4 °F 92% 30.65 in 10.0 mi Calm Calm - N/A   Overcast
8:35 AM 3.2 °F - 1.4 °F 92% 30.66 in 8.0 mi Calm Calm - N/A   Overcast
8:55 AM 3.2 °F - 1.4 °F 92% 30.66 in 10.0 mi Calm Calm - N/A   Overcast
9:15 AM 3.2 °F - 1.4 °F 92% 30.66 in 6.0 mi Calm Calm - N/A   Overcast
9:35 AM 5.0 °F - 1.4 °F 85% 30.66 in 0.8 mi Calm Calm - N/A   Overcast
9:55 AM 6.8 °F - 3.2 °F 85% 30.67 in 0.5 mi Calm Calm - N/A   Overcast
10:15 AM 6.8 °F - 3.2 °F 85% 30.67 in 2.5 mi Calm Calm - N/A   Overcast
10:35 AM 6.8 °F - 6.8 °F 100% 30.67 in 3.0 mi Calm Calm - N/A   Overcast
10:55 AM 8.6 °F - 6.8 °F 92% 30.67 in 3.0 mi Calm Calm - N/A   Overcast
11:15 AM 8.6 °F - 6.8 °F 92% 30.66 in 0.8 mi Calm Calm - N/A   Overcast
11:35 AM 8.6 °F - 6.8 °F 92% 30.65 in 0.5 mi Calm Calm - N/A   Overcast
11:55 AM 10.4 °F - 8.6 °F 92% 30.64 in 0.5 mi Calm Calm - N/A   Overcast
12:15 PM 10.4 °F - 8.6 °F 92% 30.63 in 1.2 mi Calm Calm - N/A   Overcast
12:35 PM 10.4 °F - 8.6 °F 92% 30.62 in 3.0 mi Calm Calm - N/A   Overcast
12:55 PM 10.4 °F - 8.6 °F 92% 30.61 in 2.5 mi Calm Calm - N/A   Overcast
1:15 PM 10.4 °F - 8.6 °F 92% 30.61 in 4.0 mi Calm Calm - N/A   Overcast
1:35 PM 10.4 °F - 8.6 °F 92% 30.60 in 5.0 mi Calm Calm - N/A   Overcast
1:55 PM 10.4 °F - 6.8 °F 85% 30.60 in 4.0 mi Calm Calm - N/A   Overcast
2:15 PM 10.4 °F - 8.6 °F 92% 30.59 in 5.0 mi Calm Calm - N/A   Overcast
2:35 PM 10.4 °F - 10.4 °F 100% 30.59 in 5.0 mi Calm Calm - N/A   Overcast
2:55 PM 10.4 °F - 8.6 °F 92% 30.58 in 5.0 mi Calm Calm - N/A   Overcast
3:15 PM 12.2 °F - 10.4 °F 92% 30.58 in 5.0 mi Calm Calm - N/A   Overcast
3:35 PM 12.2 °F - 8.6 °F 85% 30.57 in 5.0 mi Calm Calm - N/A   Overcast
3:55 PM 10.4 °F - 10.4 °F 100% 30.57 in 7.0 mi Calm Calm - N/A   Mostly Cloudy
4:15 PM 12.2 °F - 8.6 °F 85% 30.57 in 10.0 mi Calm Calm - N/A   Scattered Clouds
4:35 PM 10.4 °F - 8.6 °F 92% 30.57 in 10.0 mi Calm Calm - N/A   Mostly Cloudy
4:55 PM 12.2 °F - 8.6 °F 85% 30.57 in 10.0 mi Calm Calm - N/A   Mostly Cloudy
5:15 PM 10.4 °F - 8.6 °F 92% 30.57 in 10.0 mi Calm Calm - N/A   Partly Cloudy
5:35 PM 10.4 °F - 6.8 °F 85% 30.56 in 10.0 mi Calm Calm - N/A   Clear
5:55 PM 10.4 °F - 6.8 °F 85% 30.56 in 10.0 mi Calm Calm - N/A   Clear
6:15 PM 10.4 °F - 6.8 °F 85% 30.56 in 10.0 mi Calm Calm - N/A   Clear
6:55 PM 8.6 °F - 5.0 °F 85% 30.56 in 10.0 mi Calm Calm - N/A   Mostly Cloudy
7:15 PM 8.6 °F - 5.0 °F 85% 30.56 in 10.0 mi Calm Calm - N/A   Overcast
7:55 PM 8.6 °F 2.0 °F 5.0 °F 85% 30.56 in 7.0 mi SSW 3.5 mph - N/A   Overcast
8:15 PM 8.6 °F - 5.0 °F 85% 30.55 in 9.0 mi Calm Calm - N/A   Overcast
8:35 PM 8.6 °F - 5.0 °F 85% 30.56 in 8.0 mi Calm Calm - N/A   Overcast
8:55 PM 8.6 °F - 5.0 °F 85% 30.56 in 3.0 mi Calm Calm - N/A   Overcast
9:15 PM 6.8 °F - 3.2 °F 85% 30.56 in 4.0 mi Calm Calm - N/A   Mostly Cloudy
9:35 PM 8.6 °F - 5.0 °F 85% 30.57 in 5.0 mi Calm Calm - N/A   Overcast
9:55 PM 8.6 °F - 5.0 °F 85% 30.57 in 2.5 mi Calm Calm - N/A   Overcast
10:15 PM 8.6 °F - 5.0 °F 85% 30.57 in 5.0 mi Calm Calm - N/A   Overcast
10:35 PM 8.6 °F 2.0 °F 6.8 °F 92% 30.56 in 5.0 mi SW 3.5 mph - N/A   Overcast
10:55 PM 8.6 °F - 6.8 °F 92% 30.56 in 5.0 mi Calm Calm - N/A   Overcast
11:15 PM 8.6 °F - 3.2 °F 79% 30.56 in 5.0 mi Calm Calm - N/A   Overcast
11:35 PM 6.8 °F -0.1 °F 5.0 °F 92% 30.56 in 5.0 mi SW 3.5 mph - N/A   Overcast
11:55 PM 6.8 °F - 3.2 °F 85% 30.56 in 5.0 mi Calm Calm - N/A   Overcast